SCP
0 0 0 0 0 0 0 0 0 0 0 0 0 0 0 0 0 0 0 0 0 0 0 0 0 0 0 0 0 0 0 0 0 0 0 0 0 0 0 0 0 0 0 0 0
0 0 0 0 0 0 0 0 0 0 0 0 0 0 0 0 0 0 0 0 0 0 0 0 0 0 0 0 0 0 0 0 0 0 0 0 0 0 0 0 0 0 0 0 0
0 0 0 0 0 0 0 0 0 0 0 0 0 0 0 0 0 0 0 0 0 0 0 0 0 0 0 0 0 0 0 0 0 0 0 0 0 0 0 0 0 0 0 0 0
0 0 0 0 0 0 0 0 0 0 0 0 0 0 0 0 0 0 0 0 0 0 0 0 0 0 0 0 0 0 0 0 0 0 0 0 0 0 0 0 0 0 0 0 0
0 0 0 0 0 0 0 0 0 0 0 0 0 0 0 0 0 0 0 1 0 0 0 0 0 0 0 0 0 0 0 0 0 0 0 0 0 0 0 0 0 0 0 0 0
0 0 0 0 0 0 0 0 0 0 0 0 0 0 0 0 0 0 0 0 0 0 0 0 0 0 0 0 0 0 0 0 0 0 0 0 0 0 0 0 0 0 0 0 0
0 0 0 0 0 0 0 0 0 0 0 0 0 0 0 0 0 0 0 0 0 0 0 0 0 0 0 0 0 0 0 0 0 0 0 0 0 0 0 0 0 0 0 0 0
0 0 0 0 0 0 0 0 0 0 0 1 0 0 0 0 0 0 0 0 0 0 0 0 0 0 0 0 0 0 0 0 0 0 0 0 0 0 0 0 0 0 0 0 0
0 0 0 0 0 0 0 0 0 0 0 0 0 0 0 0 0 0 0 0 0 0 0 0 0 0 0 0 0 0 0 0 0 0 0 0 0 0 0 0 0 0 0 0 0
0 0 0 0 0 0 0 0 0 0 0 0 0 0 0 0 0 0 0 0 0 0 0 0 0 0 0 0 0 0 0 0 0 0 0 0 0 0 0 0 0 0 0 0 0
0 0 0 0 0 0 1 1 1 0 0 0 0 0 0 0 0 0 0 0 0 0 0 0 0 0 0 0 0 0 0 0 0 0 0 0 0 0 0 0 0 0 0 0 0
0 0 0 0 0 0 0 0 0 0 0 0 0 0 0 0 0 0 0 0 0 0 0 0 0 0 0 0 0 0 0 0 0 0 0 0 0 0 0 0 0 0 0 0 0
0 0 0 0 0 0 0 0 0 0 0 0 0 0 0 0 0 0 0 0 0 0 0 0 0 0 0 0 0 0 0 0 0 0 0 0 0 0 0 0 0 0 0 0 0
0 0 0 0 0 0 0 0 0 0 0 0 0 0 0 0 0 0 0 0 0 0 0 0 0 0 0 0 0 0 0 0 0 0 0 0 -0 0 0 0 0 0 0 0 0
0 0 0 0 0 0 0 0 0 0 0 0 0 0 0 0 0 0 0 0 0 0 0 0 0 0 0 0 0 0 0 0 0 0 0 0 0 -0 -0 -0 0 0 0 0 0
0 0 0 0 0 0 -0 -0 0 0 0 0 0 0 0 0 0 0 0 0 0 0 -0 0 0 0 0 0 0 0 0 0 0 0 0 0 0 -0 0 -0 -0 -0 0 0 0
0 0 0 0 0 0 0 0 0 0 0 0 0 0 0 0 0 0 0 0 0 0 0 0 0 0 0 0 0 0 0 0 0 0 0 0 0 0 0 0 -0 0 0 0 0
0 0 0 0 0 0 0 0 0 0 0 0 0 0 0 0 0 0 0 0 0 0 0 0 0 0 0 0 0 0 0 0 0 0 0 0 0 0 0 0 0 0 -0 0 0
0 0 0 0 0 0 0 0 0 0 0 0 0 0 0 0 0 0 0 0 0 0 0 0 0 0 0 0 0 0 0 0 0 0 0 0 0 0 0 0 0 0 0 0 0
0 0 0 0 0 0 0 0 0 0 0 0 0 0 0 0 0 0 0 0 0 0 0 0 0 0 0 0 0 0 0 0 0 0 0 0 0 0 0 0 0 0 0 0 0
0 0 0 0 0 0 0 0 0 0 0 0 0 0 0 0 0 0 0 0 0 0 0 0 0 0 0 0 0 0 0 0 0 0 0 0 0 -0 -0 0 0 0 0 0 0
0 0 0 0 0 0 0 0 0 0 0 0 0 0 0 0 0 0 0 0 0 0 0 0 0 0 0 0 0 0 0 0 0 0 0 0 0 0 0 0 -0 0 0 0 0
0 0 0 0 0 0 0 0 0 0 0 0 0 0 0 0 0 0 0 0 0 0 0 0 0 0 0 0 0 0 0 0 0 0 0 0 0 0 0 0 0 0 0 0 -0
0 0 0 0 0 0 0 0 0 0 0 0 0 0 0 0 0 0 0 0 0 0 0 0 0 0 0 0 0 0 0 0 0 0 0 0 0 0 0 0 0 -0 -0 -0 -0
0 0 0 0 0 0 0 0 0 0 0 0 0 0 0 0 0 0 0 0 0 0 0 0 0 0 0 0 0 0 0 0 0 0 0 0 0 -0 0 -0 -0 -0 -0 0 0
0 0 0 0 0 0 0 0 0 0 0 0 0 0 0 0 0 0 0 0 0 0 0 0 0 0 0 0 0 0 0 0 0 0 0 0 0 0 0 0 -0 -0 -0 -0 0
0 0 0 0 0 0 0 0 0 0 0 0 0 0 0 0 0 0 0 0 0 0 0 0 0 0 0 0 0 0 0 0 0 0 0 0 0 0 0 -0 -0 -0 0 0 0
Wind_Speed_500mb
62 59 57 57 54 54 63 63 59 53 51 53 55 50 47 44 43 47 45 40 38 25 11 12 16 13 8 5 4 7 10 17 19 14 9 1 10 4 7 7 12 13 5 9 19
62 64 62 58 59 56 57 64 63 57 51 50 53 51 50 46 44 55 53 48 35 31 27 20 16 17 7 3 5 11 9 14 5 8 9 10 9 5 10 15 16 15 22 16 23
69 64 68 67 59 64 59 58 65 62 54 50 48 49 52 47 37 50 60 48 53 43 32 23 17 16 14 6 9 7 17 9 6 8 4 9 9 5 11 14 24 25 22 25 30
78 71 68 71 69 64 65 59 59 65 61 49 48 49 51 44 19 14 40 57 50 44 36 22 15 13 13 14 10 13 13 9 5 8 4 3 13 11 17 17 8 18 18 28 33
84 79 73 72 73 69 68 64 60 61 66 59 50 48 46 42 49 5 3 50 52 48 44 30 23 17 17 12 10 15 10 9 9 17 17 15 19 19 26 24 25 13 23 28 33
79 78 76 71 74 73 70 69 64 60 63 62 57 50 45 51 38 56 32 16 50 52 45 39 21 20 11 10 18 9 11 13 13 17 13 12 23 7 10 14 21 21 22 26 34
78 77 78 70 72 74 73 71 69 60 59 62 59 54 45 59 27 37 51 43 33 52 46 40 31 23 15 10 9 4 14 15 18 9 13 8 22 25 40 32 22 21 22 26 31
76 76 77 79 68 74 73 71 69 62 55 61 58 55 40 50 39 33 50 55 28 49 45 38 35 22 8 13 8 8 10 20 8 16 12 12 37 17 23 30 37 38 30 30 33
78 77 70 75 71 74 74 71 66 60 54 56 52 50 25 47 49 49 39 52 37 36 36 34 32 18 15 15 11 15 28 21 9 12 2 22 26 15 18 32 39 39 36 32 33
76 74 75 70 71 69 74 70 65 58 56 46 43 31 38 53 61 65 43 48 43 34 28 30 18 19 19 25 37 22 19 13 13 3 6 19 32 34 21 20 26 21 27 33 38
87 79 75 70 70 70 72 71 55 45 76 57 35 48 17 39 48 61 65 47 42 40 33 32 15 34 57 39 29 19 24 23 7 1 7 21 25 40 34 38 45 46 51 53 49
85 87 79 74 69 65 82 95 88 29 33 64 24 71 33 47 30 54 69 45 32 32 46 14 45 52 37 26 29 20 23 19 4 4 7 18 30 46 47 49 51 52 56 60 56
75 77 83 74 67 79 73 91 88 62 11 57 42 54 47 48 37 52 71 42 12 34 41 35 30 37 31 30 36 34 32 19 11 12 23 21 42 41 42 39 49 51 58 59 59
63 70 86 80 74 78 92 63 90 76 10 24 32 26 57 44 14 50 69 45 10 14 25 31 24 44 35 40 35 39 24 16 8 13 16 4 18 29 33 28 34 39 40 47 46
65 69 77 86 71 70 84 82 73 60 26 30 39 26 52 45 39 25 51 40 27 19 10 7 10 34 47 44 35 24 21 19 15 19 11 24 12 17 10 23 29 40 44 44 42
66 67 69 78 82 66 62 64 56 15 30 24 39 37 43 39 21 31 39 32 25 14 30 11 18 4 12 18 23 25 18 11 4 6 13 26 27 25 24 17 7 16 30 33 28
73 70 72 73 93 82 49 67 17 24 28 23 42 50 56 34 33 26 33 28 17 18 13 14 14 17 25 17 13 23 20 8 10 8 16 6 16 33 33 21 25 28 39 37 27
74 67 70 76 80 73 71 17 31 22 24 20 41 51 48 46 33 32 34 27 34 16 8 14 12 29 19 26 17 32 13 8 10 10 10 4 18 10 21 31 25 31 39 40 37
73 72 72 77 79 65 61 21 14 35 25 40 55 59 28 48 24 26 36 40 40 34 20 15 12 13 26 12 28 16 22 13 2 5 10 15 31 37 36 35 36 43 25 25 26
83 73 82 84 72 69 18 25 9 29 19 51 33 38 40 59 38 38 41 42 43 48 36 20 11 7 9 16 13 13 22 10 7 9 14 17 26 25 18 30 14 20 14 10 17
83 53 70 80 76 52 13 17 7 33 59 34 34 34 39 63 48 48 48 20 50 47 34 20 10 4 14 14 18 9 13 4 6 7 7 10 14 6 20 19 9 12 16 17 35
83 16 59 87 23 7 21 7 26 35 29 5 14 18 48 56 38 43 41 25 60 50 38 11 6 8 4 6 4 21 20 17 11 12 7 8 24 8 15 10 8 13 29 33 44
56 22 67 94 22 7 11 16 32 49 20 21 12 16 37 41 19 28 21 7 52 47 41 22 10 11 9 1 3 18 28 26 11 4 18 8 13 8 15 18 39 50 54 56 52
47 14 42 64 32 9 25 21 33 34 8 11 14 41 48 36 12 24 21 5 29 52 35 30 7 14 20 7 23 18 35 35 31 12 24 38 46 18 25 40 50 53 67 67 60
33 8 31 23 15 26 25 24 41 21 7 15 20 59 46 20 10 26 19 13 22 37 24 15 14 8 3 14 16 25 32 44 47 42 23 55 42 31 19 28 44 44 47 56 63
25 15 15 22 42 26 27 40 52 24 13 12 30 49 40 32 18 36 23 22 16 10 17 6 6 16 9 7 8 2 17 33 45 38 46 48 64 35 59 36 35 52 55 52 70
51 50 61 22 39 33 19 43 41 24 18 22 55 39 22 25 35 41 31 29 31 31 24 18 11 10 9 1 9 13 37 34 25 32 39 40 51 41 40 44 45 52 51 58 65
Wind_Direction_500mb
241 240 238 234 235 234 232 232 228 229 228 223 223 226 229 231 230 231 233 228 222 227 226 235 252 262 270 244 186 147 225 243 265 262 281 274 229 191 217 204 204 215 213 207 194
240 238 237 235 230 232 232 232 228 226 228 224 220 220 230 233 235 235 231 231 234 240 242 246 257 244 237 181 192 227 249 218 227 287 294 311 271 244 206 205 219 229 228 213 199
242 239 236 235 234 227 229 230 229 224 225 220 219 216 225 232 249 251 236 236 239 241 236 238 239 222 213 197 201 194 247 202 192 248 275 309 280 266 241 227 231 225 218 217 200
242 241 237 234 234 232 227 227 230 224 221 220 220 213 217 220 233 269 236 232 229 233 228 215 203 194 206 206 192 229 228 223 219 212 234 262 315 272 238 250 273 230 215 225 210
245 241 239 234 233 233 228 224 226 225 222 219 219 212 209 215 223 140 160 203 221 227 226 205 204 189 213 191 180 229 228 210 244 269 261 269 264 276 275 268 262 260 237 232 227
243 242 239 237 232 231 231 225 224 223 220 219 218 216 208 224 229 226 247 227 213 217 220 208 221 208 206 199 209 200 221 253 265 257 271 255 255 240 262 281 250 251 248 240 235
241 242 240 237 233 229 227 226 225 223 217 213 216 215 212 221 230 222 229 246 226 216 210 207 210 186 181 179 194 205 256 246 232 230 245 233 249 236 246 258 267 259 257 252 249
239 239 237 233 231 228 226 223 223 223 218 211 212 213 225 227 222 217 213 219 218 216 218 215 204 194 193 133 112 220 244 246 148 199 214 207 263 243 233 235 251 257 260 260 255
236 236 237 230 231 224 222 218 219 221 218 208 210 208 226 221 213 214 208 212 213 210 212 209 185 195 155 193 204 208 244 233 255 197 205 211 271 275 233 235 250 253 254 257 259
235 233 231 226 223 221 215 214 215 216 210 202 212 194 224 212 209 208 196 210 196 188 182 189 192 201 206 200 222 216 235 240 241 114 197 248 259 261 251 272 261 266 259 261 260
238 236 231 228 220 220 211 208 201 191 189 188 199 206 221 202 207 198 199 198 188 184 196 187 192 212 211 213 235 261 231 241 220 125 271 259 268 274 276 271 269 265 264 263 261
235 237 233 229 224 219 208 197 202 192 173 196 191 203 205 193 174 194 193 190 190 205 212 188 220 216 219 202 204 212 223 227 233 205 275 287 279 282 273 266 265 262 261 261 262
227 226 227 225 225 224 214 211 198 189 155 200 197 195 194 192 201 176 186 184 187 194 196 209 236 213 180 197 205 214 223 205 256 292 267 299 278 266 266 253 258 255 257 260 259
227 225 223 220 222 226 225 211 200 187 169 170 197 197 195 197 200 186 180 173 159 182 199 221 206 177 187 203 205 219 217 227 272 289 268 12 289 269 270 262 252 258 257 257 260
226 223 218 210 206 217 222 215 188 172 217 168 179 188 180 190 140 179 182 192 186 173 128 175 173 185 192 203 194 222 175 195 230 251 295 244 262 262 244 258 264 262 262 262 263
227 218 212 207 214 218 223 217 201 213 191 163 157 175 166 183 165 150 174 195 171 158 187 166 204 267 187 155 177 136 115 97 146 216 253 250 220 261 256 256 227 263 276 275 274
224 216 210 208 207 205 198 188 188 196 137 150 166 171 175 173 168 169 185 176 170 150 190 142 181 160 163 133 133 173 151 178 191 203 251 59 234 254 277 263 248 260 278 285 287
223 220 217 212 205 207 201 197 216 155 174 170 163 169 181 157 183 180 181 195 205 181 132 159 178 176 176 200 168 182 182 200 215 216 268 127 244 251 269 278 270 262 261 278 298
216 220 217 212 206 196 187 239 180 152 153 151 148 165 167 177 154 168 193 197 191 185 167 172 203 212 185 164 156 175 206 242 297 102 270 244 261 279 269 278 261 268 273 292 311
205 205 214 208 203 192 199 224 142 159 166 146 148 177 169 178 172 180 182 197 198 193 195 167 150 233 145 136 53 194 148 149 178 210 246 256 272 249 280 281 347 360 23 18 34
195 194 209 206 198 192 203 173 187 173 156 184 153 163 172 174 185 185 187 179 189 188 185 171 150 188 157 192 157 134 176 123 142 216 247 285 261 250 250 270 43 35 356 4 334
184 185 192 192 189 170 193 202 162 178 171 143 137 131 165 169 171 184 194 192 188 174 188 171 145 150 117 8 260 180 191 173 188 180 234 290 258 190 319 94 127 322 325 332 338
176 162 180 183 194 170 115 160 167 159 165 150 129 151 162 162 151 181 185 138 176 175 174 168 161 144 141 71 23 201 207 201 151 87 212 215 255 59 133 346 333 329 327 330 326
153 166 160 180 194 155 151 163 151 158 75 90 118 127 140 156 93 169 150 144 186 183 160 141 162 215 211 184 143 178 199 201 196 197 233 234 250 243 290 315 320 325 321 313 312
154 180 148 168 183 177 180 156 144 144 89 129 136 151 147 146 131 163 159 122 167 166 148 162 191 166 119 134 154 192 194 200 208 221 211 250 258 251 274 281 287 301 292 299 305
136 152 110 140 159 146 184 171 154 145 146 149 156 156 158 164 165 162 140 163 160 161 152 152 155 167 195 132 98 232 221 216 220 226 244 267 271 269 268 274 284 290 282 297 300
158 149 130 143 164 170 185 158 147 129 24 149 141 137 137 146 132 146 152 144 160 166 170 161 135 159 205 161 92 268 230 219 214 218 233 244 259 273 281 285 283 294 304 297 307
Wind_Speed_850mb
62 59 57 57 54 54 63 63 59 53 51 53 55 50 47 44 43 47 45 40 38 25 11 12 16 13 8 5 4 7 10 17 19 14 9 1 10 4 7 7 12 13 5 9 19
62 64 62 58 59 56 57 64 63 57 51 50 53 51 50 46 44 55 53 48 35 31 27 20 16 17 7 3 5 11 9 14 5 8 9 10 9 5 10 15 16 15 22 16 23
69 64 68 67 59 64 59 58 65 62 54 50 48 49 52 47 37 50 60 48 53 43 32 23 17 16 14 6 9 7 17 9 6 8 4 9 9 5 11 14 24 25 22 25 30
78 71 68 71 69 64 65 59 59 65 61 49 48 49 51 44 19 14 40 57 50 44 36 22 15 13 13 14 10 13 13 9 5 8 4 3 13 11 17 17 8 18 18 28 33
84 79 73 72 73 69 68 64 60 61 66 59 50 48 46 42 49 5 3 50 52 48 44 30 23 17 17 12 10 15 10 9 9 17 17 15 19 19 26 24 25 13 23 28 33
79 78 76 71 74 73 70 69 64 60 63 62 57 50 45 51 38 56 32 16 50 52 45 39 21 20 11 10 18 9 11 13 13 17 13 12 23 7 10 14 21 21 22 26 34
78 77 78 70 72 74 73 71 69 60 59 62 59 54 45 59 27 37 51 43 33 52 46 40 31 23 15 10 9 4 14 15 18 9 13 8 22 25 40 32 22 21 22 26 31
76 76 77 79 68 74 73 71 69 62 55 61 58 55 40 50 39 33 50 55 28 49 45 38 35 22 8 13 8 8 10 20 8 16 12 12 37 17 23 30 37 38 30 30 33
78 77 70 75 71 74 74 71 66 60 54 56 52 50 25 47 49 49 39 52 37 36 36 34 32 18 15 15 11 15 28 21 9 12 2 22 26 15 18 32 39 39 36 32 33
76 74 75 70 71 69 74 70 65 58 56 46 43 31 38 53 61 65 43 48 43 34 28 30 18 19 19 25 37 22 19 13 13 3 6 19 32 34 21 20 26 21 27 33 38
87 79 75 70 70 70 72 71 55 45 76 57 35 48 17 39 48 61 65 47 42 40 33 32 15 34 57 39 29 19 24 23 7 1 7 21 25 40 34 38 45 46 51 53 49
85 87 79 74 69 65 82 95 88 29 33 64 24 71 33 47 30 54 69 45 32 32 46 14 45 52 37 26 29 20 23 19 4 4 7 18 30 46 47 49 51 52 56 60 56
75 77 83 74 67 79 73 91 88 62 11 57 42 54 47 48 37 52 71 42 12 34 41 35 30 37 31 30 36 34 32 19 11 12 23 21 42 41 42 39 49 51 58 59 59
63 70 86 80 74 78 92 63 90 76 10 24 32 26 57 44 14 50 69 45 10 14 25 31 24 44 35 40 35 39 24 16 8 13 16 4 18 29 33 28 34 39 40 47 46
65 69 77 86 71 70 84 82 73 60 26 30 39 26 52 45 39 25 51 40 27 19 10 7 10 34 47 44 35 24 21 19 15 19 11 24 12 17 10 23 29 40 44 44 42
66 67 69 78 82 66 62 64 56 15 30 24 39 37 43 39 21 31 39 32 25 14 30 11 18 4 12 18 23 25 18 11 4 6 13 26 27 25 24 17 7 16 30 33 28
73 70 72 73 93 82 49 67 17 24 28 23 42 50 56 34 33 26 33 28 17 18 13 14 14 17 25 17 13 23 20 8 10 8 16 6 16 33 33 21 25 28 39 37 27
74 67 70 76 80 73 71 17 31 22 24 20 41 51 48 46 33 32 34 27 34 16 8 14 12 29 19 26 17 32 13 8 10 10 10 4 18 10 21 31 25 31 39 40 37
73 72 72 77 79 65 61 21 14 35 25 40 55 59 28 48 24 26 36 40 40 34 20 15 12 13 26 12 28 16 22 13 2 5 10 15 31 37 36 35 36 43 25 25 26
83 73 82 84 72 69 18 25 9 29 19 51 33 38 40 59 38 38 41 42 43 48 36 20 11 7 9 16 13 13 22 10 7 9 14 17 26 25 18 30 14 20 14 10 17
83 53 70 80 76 52 13 17 7 33 59 34 34 34 39 63 48 48 48 20 50 47 34 20 10 4 14 14 18 9 13 4 6 7 7 10 14 6 20 19 9 12 16 17 35
83 16 59 87 23 7 21 7 26 35 29 5 14 18 48 56 38 43 41 25 60 50 38 11 6 8 4 6 4 21 20 17 11 12 7 8 24 8 15 10 8 13 29 33 44
56 22 67 94 22 7 11 16 32 49 20 21 12 16 37 41 19 28 21 7 52 47 41 22 10 11 9 1 3 18 28 26 11 4 18 8 13 8 15 18 39 50 54 56 52
47 14 42 64 32 9 25 21 33 34 8 11 14 41 48 36 12 24 21 5 29 52 35 30 7 14 20 7 23 18 35 35 31 12 24 38 46 18 25 40 50 53 67 67 60
33 8 31 23 15 26 25 24 41 21 7 15 20 59 46 20 10 26 19 13 22 37 24 15 14 8 3 14 16 25 32 44 47 42 23 55 42 31 19 28 44 44 47 56 63
25 15 15 22 42 26 27 40 52 24 13 12 30 49 40 32 18 36 23 22 16 10 17 6 6 16 9 7 8 2 17 33 45 38 46 48 64 35 59 36 35 52 55 52 70
51 50 61 22 39 33 19 43 41 24 18 22 55 39 22 25 35 41 31 29 31 31 24 18 11 10 9 1 9 13 37 34 25 32 39 40 51 41 40 44 45 52 51 58 65
Wind_Direction_850mb
241 240 238 234 235 234 232 232 228 229 228 223 223 226 229 231 230 231 233 228 222 227 226 235 252 262 270 244 186 147 225 243 265 262 281 274 229 191 217 204 204 215 213 207 194
240 238 237 235 230 232 232 232 228 226 228 224 220 220 230 233 235 235 231 231 234 240 242 246 257 244 237 181 192 227 249 218 227 287 294 311 271 244 206 205 219 229 228 213 199
242 239 236 235 234 227 229 230 229 224 225 220 219 216 225 232 249 251 236 236 239 241 236 238 239 222 213 197 201 194 247 202 192 248 275 309 280 266 241 227 231 225 218 217 200
242 241 237 234 234 232 227 227 230 224 221 220 220 213 217 220 233 269 236 232 229 233 228 215 203 194 206 206 192 229 228 223 219 212 234 262 315 272 238 250 273 230 215 225 210
245 241 239 234 233 233 228 224 226 225 222 219 219 212 209 215 223 140 160 203 221 227 226 205 204 189 213 191 180 229 228 210 244 269 261 269 264 276 275 268 262 260 237 232 227
243 242 239 237 232 231 231 225 224 223 220 219 218 216 208 224 229 226 247 227 213 217 220 208 221 208 206 199 209 200 221 253 265 257 271 255 255 240 262 281 250 251 248 240 235
241 242 240 237 233 229 227 226 225 223 217 213 216 215 212 221 230 222 229 246 226 216 210 207 210 186 181 179 194 205 256 246 232 230 245 233 249 236 246 258 267 259 257 252 249
239 239 237 233 231 228 226 223 223 223 218 211 212 213 225 227 222 217 213 219 218 216 218 215 204 194 193 133 112 220 244 246 148 199 214 207 263 243 233 235 251 257 260 260 255
236 236 237 230 231 224 222 218 219 221 218 208 210 208 226 221 213 214 208 212 213 210 212 209 185 195 155 193 204 208 244 233 255 197 205 211 271 275 233 235 250 253 254 257 259
235 233 231 226 223 221 215 214 215 216 210 202 212 194 224 212 209 208 196 210 196 188 182 189 192 201 206 200 222 216 235 240 241 114 197 248 259 261 251 272 261 266 259 261 260
238 236 231 228 220 220 211 208 201 191 189 188 199 206 221 202 207 198 199 198 188 184 196 187 192 212 211 213 235 261 231 241 220 125 271 259 268 274 276 271 269 265 264 263 261
235 237 233 229 224 219 208 197 202 192 173 196 191 203 205 193 174 194 193 190 190 205 212 188 220 216 219 202 204 212 223 227 233 205 275 287 279 282 273 266 265 262 261 261 262
227 226 227 225 225 224 214 211 198 189 155 200 197 195 194 192 201 176 186 184 187 194 196 209 236 213 180 197 205 214 223 205 256 292 267 299 278 266 266 253 258 255 257 260 259
227 225 223 220 222 226 225 211 200 187 169 170 197 197 195 197 200 186 180 173 159 182 199 221 206 177 187 203 205 219 217 227 272 289 268 12 289 269 270 262 252 258 257 257 260
226 223 218 210 206 217 222 215 188 172 217 168 179 188 180 190 140 179 182 192 186 173 128 175 173 185 192 203 194 222 175 195 230 251 295 244 262 262 244 258 264 262 262 262 263
227 218 212 207 214 218 223 217 201 213 191 163 157 175 166 183 165 150 174 195 171 158 187 166 204 267 187 155 177 136 115 97 146 216 253 250 220 261 256 256 227 263 276 275 274
224 216 210 208 207 205 198 188 188 196 137 150 166 171 175 173 168 169 185 176 170 150 190 142 181 160 163 133 133 173 151 178 191 203 251 59 234 254 277 263 248 260 278 285 287
223 220 217 212 205 207 201 197 216 155 174 170 163 169 181 157 183 180 181 195 205 181 132 159 178 176 176 200 168 182 182 200 215 216 268 127 244 251 269 278 270 262 261 278 298
216 220 217 212 206 196 187 239 180 152 153 151 148 165 167 177 154 168 193 197 191 185 167 172 203 212 185 164 156 175 206 242 297 102 270 244 261 279 269 278 261 268 273 292 311
205 205 214 208 203 192 199 224 142 159 166 146 148 177 169 178 172 180 182 197 198 193 195 167 150 233 145 136 53 194 148 149 178 210 246 256 272 249 280 281 347 360 23 18 34
195 194 209 206 198 192 203 173 187 173 156 184 153 163 172 174 185 185 187 179 189 188 185 171 150 188 157 192 157 134 176 123 142 216 247 285 261 250 250 270 43 35 356 4 334
184 185 192 192 189 170 193 202 162 178 171 143 137 131 165 169 171 184 194 192 188 174 188 171 145 150 117 8 260 180 191 173 188 180 234 290 258 190 319 94 127 322 325 332 338
176 162 180 183 194 170 115 160 167 159 165 150 129 151 162 162 151 181 185 138 176 175 174 168 161 144 141 71 23 201 207 201 151 87 212 215 255 59 133 346 333 329 327 330 326
153 166 160 180 194 155 151 163 151 158 75 90 118 127 140 156 93 169 150 144 186 183 160 141 162 215 211 184 143 178 199 201 196 197 233 234 250 243 290 315 320 325 321 313 312
154 180 148 168 183 177 180 156 144 144 89 129 136 151 147 146 131 163 159 122 167 166 148 162 191 166 119 134 154 192 194 200 208 221 211 250 258 251 274 281 287 301 292 299 305
136 152 110 140 159 146 184 171 154 145 146 149 156 156 158 164 165 162 140 163 160 161 152 152 155 167 195 132 98 232 221 216 220 226 244 267 271 269 268 274 284 290 282 297 300
158 149 130 143 164 170 185 158 147 129 24 149 141 137 137 146 132 146 152 144 160 166 170 161 135 159 205 161 92 268 230 219 214 218 233 244 259 273 281 285 283 294 304 297 307